This is the latest recevied weather packets stored in our database for station/object N3SBK. If no packets are shown the sender has not sent any weather packets the latest 10 day(s).
| Time | Temp. | Humidity | Pressure | Rain* | Wind** | Luminosity | Snow |
|---|---|---|---|---|---|---|---|
| 1787510187 | 22.78° C | 55% | 1004.6 hPa | 0 mm | - | 374 W/m² | - |
| 1787509884 | 22.78° C | 58% | 1004.8 hPa | 0 mm | - | 721 W/m² | - |
| 1787509583 | 22.78° C | 56% | 1004.7 hPa | 0 mm | - | 690 W/m² | - |
| 1787509281 | 23.33° C | 55% | 1004.7 hPa | 0 mm | - | 543 W/m² | - |
| 1787508980 | 22.78° C | 61% | 1005 hPa | 0 mm | - | 681 W/m² | - |
| 1787508676 | 22.78° C | 61% | 1004.7 hPa | 0 mm | - | 688 W/m² | - |
| 1787508376 | 22.78° C | 59% | 1005 hPa | 0 mm | - | 669 W/m² | - |
| 1787508073 | 22.78° C | 61% | 1005.1 hPa | 0 mm | - | 673 W/m² | - |
| 1787507769 | 22.22° C | 63% | 1004.8 hPa | 0 mm | - | 668 W/m² | - |
| 1787507464 | 22.22° C | 66% | 1005 hPa | 0 mm | - | 685 W/m² | - |
| 1787507160 | 21.67° C | 66% | 1004.8 hPa | 0 mm | - | 721 W/m² | - |
| 1787506855 | 21.67° C | 65% | 1005.2 hPa | 0 mm | - | 709 W/m² | - |
| 1787506551 | 22.22° C | 63% | 1005 hPa | 0 mm | - | 742 W/m² | - |
| 1787506247 | 22.22° C | 63% | 1005.1 hPa | 0 mm | - | 145 W/m² | - |
| 1787505942 | 22.22° C | 65% | 1005.2 hPa | 0 mm | - | 740 W/m² | - |
| 1787505637 | 21.67° C | 63% | 1005.3 hPa | 0 mm | - | 800 W/m² | - |
| 1787505332 | 21.67° C | 68% | 1005 hPa | 0 mm | - | 789 W/m² | - |
| 1787505027 | 21.67° C | 62% | 1005.2 hPa | 0 mm | - | 153 W/m² | - |
| 1787504722 | 21.11° C | 69% | 1005 hPa | 0 mm | - | 724 W/m² | - |
| 1787504419 | 21.11° C | 64% | 1005.3 hPa | 0 mm | - | 722 W/m² | - |
| 1787504114 | 21.67° C | 66% | 1005.4 hPa | 0 mm | - | 707 W/m² | - |
| 1787503809 | 21.67° C | 70% | 1005.3 hPa | 0 mm | - | 803 W/m² | - |
| 1787503505 | 21.11° C | 70% | 1005.4 hPa | 0 mm | - | 580 W/m² | - |
| 1787503201 | 20.56° C | 71% | 1005.4 hPa | 0 mm | - | 691 W/m² | - |
| 1787502896 | 20.56° C | 73% | 1005.4 hPa | 0 mm | - | 138 W/m² | - |
* Rain latest hour (hover to see other rain measurements)
** Current wind speed in m/s (hover to see current wind gust speed)